Weather in Silvan

Turkey     38°08′32″N   41°00′01″E
temp.,
°C
wind,
m/s
gust,
m/s
humid.,
%
clouds,
%
prec.,
mm/h
press.,
hPa
HPBL,
m
28 november, sun
sun2800:00+8e1177100 0.0 102310
03:00+8wnw0080100 0.0 102210
06:00+9ene2176100 0.0 102220
09:00+9se1279100 0.1 102285
12:00+9ese2383100 0.2 1022237
15:00+10e227898 0.2 1021249
18:00+9e0187100 0.5 102157
21:00+8n11895 0.5 102110
29 november, mon
mon2900:00+7nnw22875 0.0 102211
03:00+7nw2286100 0.0 102212
06:00+7nnw118657 0.0 102210
09:00+10nnw12720 0.0 102373
12:00+13nw11565 0.0 1021568
15:00+15nw124890 0.0 1021641
18:00+11wnw1161100 0.0 102110
21:00+11ne116382 0.0 102110
30 november, tue
tue3000:00+10n1165100 0.0 102010
03:00+10n1166100 0.0 102010
06:00+10e1164100 0.0 101910
09:00+12ene1158100 0.0 101910
12:00+15se1244100 0.0 1017258
15:00+15se3447100 0.0 1014312
18:00+12se2356100 0.0 101424
21:00+12s23602 0.0 101342
1 december, wed
wed100:00+10ese3363100 0.0 101233
03:00+9se35690 0.0 101178
06:00+9se3470100 0.0 101169
09:00+9sse3869100 0.0 1010354
12:00+11s6973100 0.5 10071032
15:00+11ssw914719 2.3 10041181
18:00+10wsw8128299 2.8 10051083
21:00+8ssw337229 3.6 1006402
2 december, thu
thu200:00+5s118415 0.0 100823
03:00+5n128164 0.0 1009155
06:00+4nw228886 0.0 101131
09:00+5nnw23614 0.0 1014187
12:00+9nnw34410 0.0 10141025
15:00+10n44340 0.0 10141198
18:00+6n22500 0.0 101816
21:00+4n22560 0.0 102116